{"data":{"norad_id":60746,"intl_designator":"2024-153B","name":"2024-153B","alt_names":[],"object_type":"PAYLOAD","status":"ACTIVE","operator":null,"country":"PRC","launch_date":"2024-08-29","launch_site_code":"YSLA","launch_vehicle":null,"mission":null,"orbit_class":"UNKNOWN","rcs_meters":null,"size_class":null,"mass_kg":null,"dimensions":null,"purposes":[],"wikipedia_slug":null,"has_3d_model":false,"image_url":null,"decayed_at":null,"tle_current":{"epoch":"2026-09-22T22:25:49.425312Z","epoch_age_seconds":81288,"freshness":"FRESH","line1":"1 60746U 24153B   26265.93459983  .00010633  00000+0  31015-3 0  9994","line2":"2 60746  97.6902  49.3993 0009759 167.8124 192.3357 15.35501124114940","mean_motion":15.35501124,"eccentricity":0.0009759,"inclination_deg":97.6902,"raan_deg":49.3993,"arg_perigee_deg":167.8124,"mean_anomaly_deg":192.3357,"bstar":0.00031015,"rev_number":11494,"period_min":93.780458867316,"perigee_km":452.75963956618,"apogee_km":466.1052075671,"semimajor_km":6837.5694235666,"source":"CELESTRAK","updated_at":"2026-09-23T09:00:20.717806Z"}}}